www.pogodaiklimat.ru

Погода и климат >> Архив погоды >> Австрия >> Амштеттен


ПОГОДА в Амштеттене

  • Прогноз погоды в Амштеттене
  • Монитор погоды в Амштеттене

АРХИВ ПОГОДЫ в Амштеттене

Время (UTC), дата Ветер
(напр.,м/с)
 
Видим.   Явления Облачность Т
(С)
Тd
(С)
f
(%)
Тe
(С)
Тes
(С)
Комфортность P
(гПа)
Po
(гПа)
Тmin
(С)
Tmax
(С)
R
(мм)
R24
(мм)
S
(см)
01 9.09 ЮЗ 3 н/о в посл. час осадки н/о +11.3 +9.1 86 +9 +9 1014.5 983.1 0.1
02 9.09 ЮЗ 3 н/о осадки н/о +10.7 +9.3 91 +9 +9 1013.8 982.3 0.0
03 9.09 ЮЗ 3 н/о осадки {ливн. осадки} н/о +10.2 +8.9 92 +8 +8 1013.6 982.1 0.6
04 9.09 З 2 н/о ливневой дождь н/о +10.2 +9.3 94 +9 +9 1012.9 981.4 0.2
05 9.09 ЮЗ 3 н/о осадки н/о +10.3 +9.2 93 +8 +8 1012.9 981.4 0.5
06 9.09 ЮЗ 3 н/о осадки {ливн. осадки} н/о +10.5 +9.2 92 +8 +8 1013.1 981.6 +10.1 +16.9 3
07 9.09 ЮЗ 3 н/о осадки н/о +10.7 +8.9 89 +9 +9 1013.4 981.9 1
08 9.09 ЮЗ 4 н/о осадки н/о +11.7 +9.0 83 +10 +10 1013.2 981.8 0.8
09 9.09 ЮЗ 4 н/о осадки н/о +13.0 +9.3 78 +11 +11 1013.5 982.3 2
10 9.09 ЮЗ 4 н/о в посл. час осадки н/о +12.2 +8.7 79 +10 +10 1013.6 982.3 0.1
11 9.09 ЮЗ 5 н/о н/о +13.2 +9.6 79 +11 +11 1013.7 982.5 0.0
12 9.09 З 4 н/о {осадки} н/о +13.4 +9.0 75 +12 +12 1014.1 982.9 2
13 9.09 З 5
{14}
н/о н/о +13.9 +9.3 74 +12 +12 1014.4 983.2
14 9.09 З 5
{14}
н/о н/о +14.2 +9.4 73 +13 +13 1014.2 983.1 0.0
15 9.09 З 6
{14}
н/о н/о +14.3 +9.1 71 +12 +12 1014.0 982.9 0.0
16 9.09 З 4
{13}
н/о н/о +14.0 +9.3 73 +13 +13 1014.3 983.2
17 9.09 З 5 н/о н/о +13.2 +9.3 77 +11 +11 1015.5 984.2 0.0
18 9.09 З 4
{14}
н/о в посл. час осадки н/о +13.2 +9.1 76 +12 +12 1016.0 984.7 +10.4 +14.7 2
19 9.09 З 3 н/о н/о +13.3 +9.0 75 +12 +12 1016.8 985.5
20 9.09 З 3 н/о н/о +11.9 +8.8 81 +10 +10 1017.2 985.7
21 9.09 З 2 н/о н/о +11.2 +8.5 83 +10 +10 1017.5 986.0
22 9.09 З 2 н/о н/о +9.7 +8.0 89 +8 +8 1017.9 986.2
23 9.09 З 2 н/о н/о +8.7 +7.6 93 +7 +7 1018.3 986.4
00 10.09 штиль 0 н/о н/о +7.5 +6.8 95 +6 +6 1018.5 986.5
01 10.09 штиль 0 н/о н/о +7.1 +6.4 95 +6 +6 1018.6 986.5
02 10.09 штиль 0 н/о н/о +6.6 +6.0 96 +6 +6 1018.5 986.4
03 10.09 штиль 0 н/о н/о +5.8 +5.3 97 +5 +5 1018.5 986.3
04 10.09 штиль 0 н/о н/о +5.3 +4.7 96 +4 +4 1018.8 986.5
05 10.09 В 1 н/о н/о +5.0 +4.6 97 +4 +4 1018.9 986.6
06 10.09 штиль 0 н/о н/о +7.3 +6.6 95 +6 +6 1019.1 987.1 +4.6 +13.4
07 10.09 ЮЗ 1 н/о н/о +10.0 +7.8 86 +10 +10 1019.3 987.6
08 10.09 штиль 0 н/о н/о +11.6 +8.3 80 +11 +11 1019.2 987.6
09 10.09 СВ 1 н/о н/о +14.1 +9.6 74 +14 +14 1018.8 987.5
10 10.09 СВ 1 н/о н/о +16.4 +9.6 64 +17 +17 1018.3 987.3
11 10.09 В 2 н/о н/о +17.7 +9.8 60 +18 +18 1017.8 986.9
12 10.09 СВ 3 н/о н/о +19.4 +10.5 56 +21 +21 комфорт 1017.5 986.8
13 10.09 В 3 н/о н/о +19.9 +9.7 52 +21 +21 комфорт 1017.1 986.5
14 10.09 В 3 н/о н/о +20.9 +10.6 52 +23 +23 комфорт 1016.8 986.3
15 10.09 В 2 н/о н/о +21.1 +10.9 52 +23 +23 комфорт 1016.9 986.4
16 10.09 В 2 н/о н/о +21.4 +12.0 55 +24 +24 комфорт 1016.9 986.5
17 10.09 В 1 н/о н/о +19.9 +11.9 60 +23 +23 комфорт 1017.3 986.7
18 10.09 штиль 0 н/о н/о +16.6 +13.1 80 +17 +17 1018.0 987.1 +6.8 +21.4
19 10.09 штиль 0 н/о н/о +14.4 +12.2 87 +14 +14 1019.0 987.8
20 10.09 З 1 н/о н/о +13.6 +11.8 89 +14 +14 1019.7 988.4
21 10.09 З 1 н/о н/о +12.3 +11.3 94 +12 +12 1020.1 988.6
22 10.09 З 1 н/о н/о +10.9 +9.9 94 +10 +10 1020.9 989.2
23 10.09 ЮЗ 1 н/о н/о +11.0 +10.4 96 +11 +11 1020.9 989.2
00 11.09 СЗ 1 н/о н/о +10.9 +10.4 97 +10 +10 1020.8 989.1
01 11.09 В 1 н/о н/о +9.3 +8.8 97 +9 +9 1021.4 989.5
02 11.09 штиль 0 н/о н/о +9.3 +8.8 97 +8 +8 1021.5 989.6
03 11.09 З 2 н/о н/о +9.6 +9.3 98 +8 +8 1021.4 989.6
04 11.09 В 1 н/о н/о +9.0 +9.0 100 +8 +8 1021.7 989.8
05 11.09 З 2 н/о н/о +9.4 +9.3 99 +8 +8 1022.7 990.8
06 11.09 З 1 н/о н/о +10.0 +9.9 99 +9 +9 1023.0 991.2 +8.0 +17.0
07 11.09 З 1 н/о н/о +11.1 +10.8 98 +11 +11 1023.3 991.6
08 11.09 ЮЗ 1 н/о н/о +13.3 +11.5 89 +13 +13 1023.6 992.1
09 11.09 З 2 н/о н/о +15.0 +12.0 82 +15 +15 1023.8 992.5
10 11.09 ЮЗ 1 н/о н/о +17.5 +12.8 74 +19 +19 1023.3 992.3
11 11.09 З 1 н/о н/о +19.5 +12.0 62 +22 +22 комфорт 1022.8 992.0
12 11.09 Ю 2 н/о н/о +21.0 +12.1 57 +24 +24 комфорт 1022.5 991.9
13 11.09 ЮВ 2 н/о н/о +21.8 +11.9 53 +24 +24 комфорт 1022.1 991.6
14 11.09 З 1 н/о н/о +22.6 +12.5 53 +25 +25 комфорт 1021.9 991.5
15 11.09 З 3 н/о н/о +21.2 +13.2 60 +24 +24 комфорт 1022.4 991.8
16 11.09 З 2 н/о н/о +20.6 +13.4 63 +24 +24 комфорт 1022.9 992.2
17 11.09 З 2 н/о н/о +19.8 +13.7 68 +22 +22 комфорт 1023.3 992.5
18 11.09 З 2 н/о н/о +18.1 +14.0 77 +19 +19 1024.3 993.3 +9.8 +22.7
19 11.09 З 1 н/о н/о +16.8 +13.3 80 +18 +18 1025.3 994.2
20 11.09 З 1 н/о н/о +14.8 +12.8 88 +15 +15 1026.1 994.7
21 11.09 З 1 н/о н/о +14.6 +13.0 90 +15 +15 1026.7 995.3
22 11.09 З 2 н/о н/о +14.3 +12.8 91 +14 +14 1027.2 995.7
23 11.09 З 2 н/о н/о +13.3 +12.2 93 +13 +13 1027.6 996.0
00 12.09 З 1 н/о н/о +11.6 +10.9 95 +11 +11 1028.2 996.4
01 12.09 З 2 н/о н/о +12.1 +11.3 95 +11 +11 1028.3 996.5
02 12.09 З 2 н/о н/о +11.8 +11.0 95 +11 +11 1028.9 997.1
03 12.09 З 2 н/о н/о +11.7 +10.9 95 +10 +10 1029.6 997.8
04 12.09 З 2 н/о н/о +11.3 +10.6 95 +10 +10 1030.1 998.2
05 12.09 З 2 н/о н/о +10.8 +10.1 95 +9 +9 1030.7 998.7
06 12.09 З 2 н/о н/о +12.1 +11.2 94 +11 +11 1030.8 999.0 +9.9 +18.6
07 12.09 З 2 н/о н/о +14.3 +12.4 88 +14 +14 1031.5 999.9
08 12.09 ЮЗ 2 н/о н/о +15.9 +12.6 81 +16 +16 1031.9 1000.5
09 12.09 З 2 н/о н/о +18.2 +12.9 71 +19 +19 1031.9 1000.7
10 12.09 З 3 н/о н/о +19.6 +13.0 66 +21 +21 комфорт 1032.0 1000.9
11 12.09 З 3 н/о н/о +20.5 +11.1 55 +23 +23 комфорт 1031.7 1000.7
12 12.09 З 4 н/о н/о +20.8 +9.1 47 +22 +22 комфорт 1031.5 1000.5
13 12.09 З 3 н/о н/о +21.2 +8.6 44 +22 +22 комфорт 1031.1 1000.2 0.0
14 12.09 З 3 н/о н/о +21.7 +9.8 47 +23 +23 комфорт 1030.7 999.9
15 12.09 З 2 н/о н/о +21.6 +10.3 49 +23 +23 комфорт 1030.5 999.7 0.0
16 12.09 З 3 н/о н/о +22.5 +11.0 48 +25 +25 комфорт 1030.0 999.3
17 12.09 З 2 н/о н/о +20.7 +12.1 58 +24 +24 комфорт 1030.1 999.2 0.0
18 12.09 З 1 н/о н/о +17.1 +12.4 74 +18 +18 1030.8 999.5 +11.6 +22.9 0.0
20 12.09 З 1 н/о н/о +14.5 +11.9 84 +15 +15 1031.7 1000.1
21 12.09 З 1 н/о н/о +12.5 +11.1 91 +12 +12 1032.0 1000.2
22 12.09 З 1 н/о н/о +11.7 +10.8 94 +11 +11 1032.3 1000.4
23 12.09 З 2 н/о н/о +11.5 +10.3 92 +10 +10 1032.4 1000.4
00 13.09 З 2 н/о н/о +11.5 +10.4 93 +10 +10 1032.5 1000.5
01 13.09 З 2 н/о н/о +12.6 +11.1 91 +12 +12 1032.1 1000.3
02 13.09 З 2 н/о н/о +12.9 +11.0 88 +12 +12 1031.9 1000.1
03 13.09 ЮЗ 1 н/о н/о +12.1 +11.0 93 +12 +12 1031.9 1000.0
04 13.09 З 2 н/о н/о +13.2 +11.4 89 +12 +12 1031.7 1000.0
05 13.09 З 2 н/о н/о +13.3 +11.4 88 +13 +13 1031.9 1000.2
06 13.09 З 2 н/о н/о +14.0 +11.8 87 +13 +13 1032.1 1000.4 +10.9 +17.4
07 13.09 ЮЗ 1 н/о н/о +15.6 +12.4 81 +16 +16 1032.0 1000.5
08 13.09 З 1 н/о н/о +18.0 +12.9 72 +19 +19 1031.9 1000.7
09 13.09 З 2 н/о н/о +20.2 +13.5 65 +23 +23 комфорт 1031.3 1000.3
10 13.09 ЮЗ 3 н/о н/о +22.4 +13.1 56 +25 +25 комфорт 1030.6 999.9
11 13.09 СЗ 4 н/о н/о +23.3 +13.3 53 +26 +26 жарко 1030.4 999.8
12 13.09 З 3 н/о н/о +24.3 +13.9 52 +27 +27 жарко 1030.0 999.5
13 13.09 З 3 н/о н/о +25.4 +13.6 48 +28 +28 жарко 1029.6 999.2
14 13.09 СЗ 4 н/о н/о +25.4 +12.6 45 +27 +27 жарко 1029.4 999.0
15 13.09 З 3 н/о н/о +25.7 +13.3 46 +28 +28 жарко 1029.1 998.8
16 13.09 З 3 н/о н/о +25.2 +13.1 47 +27 +27 жарко 1029.0 998.6
17 13.09 З 2 н/о н/о +23.4 +13.6 54 +27 +27 душно 1029.2 998.6 0.0
18 13.09 З 2 н/о н/о +20.1 +14.7 71 +23 +23 комфорт 1029.7 998.8 +13.7 +26.0 0.0
19 13.09 З 2 н/о н/о +19.0 +14.2 74 +21 +21 комфорт 1030.1 999.1
20 13.09 З 2 н/о н/о +18.4 +14.5 78 +19 +19 1030.4 999.3
21 13.09 З 1 н/о н/о +18.6 +15.1 80 +21 +21 комфорт 1030.7 999.6
22 13.09 штиль 0 н/о н/о +17.7 +15.0 84 +18 +18 1031.0 999.8
23 13.09 З 1 н/о н/о +16.6 +14.6 88 +17 +17 1030.9 999.6
00 14.09 З 2 н/о н/о +17.5 +14.8 84 +18 +18 1030.8 999.6
01 14.09 ЮЗ 1 н/о н/о +17.0 +14.8 87 +18 +18 1030.8 999.5
02 14.09 штиль 0 н/о н/о +16.3 +14.8 91 +16 +16 1030.6 999.3
03 14.09 СЗ 1 н/о н/о +17.1 +15.4 90 +18 +18 1030.5 999.3
04 14.09 штиль 0 н/о н/о +16.7 +15.0 90 +17 +17 1031.0 999.7
05 14.09 СВ 1 н/о н/о +16.7 +15.1 90 +18 +18 1031.1 999.8
06 14.09 штиль 0 н/о н/о +16.9 +15.1 89 +17 +17 1031.6 1000.3 +16.3 +20.9
07 14.09 СВ 2 н/о н/о +18.1 +15.2 83 +19 +19 1031.9 1000.7
08 14.09 В 3 н/о н/о +17.9 +13.3 74 +18 +18 1032.2 1001.0
09 14.09 В 4 н/о н/о +18.2 +12.8 71 +18 +18 1032.3 1001.1
10 14.09 В 5 н/о н/о +18.8 +12.1 65 +19 +19 1032.2 1001.0
11 14.09 В 4 н/о н/о +19.6 +12.6 64 +21 +21 комфорт 1031.1 1000.1
12 14.09 В 4 н/о н/о +20.3 +12.7 62 +22 +22 комфорт 1030.5 999.6
13 14.09 В 5 н/о н/о +21.3 +12.3 56 +23 +23 комфорт 1029.8 999.0
14 14.09 В 4 н/о н/о +21.8 +11.8 53 +24 +24 комфорт 1029.4 998.6
15 14.09 В 4 н/о н/о +21.4 +12.3 56 +24 +24 комфорт 1029.2 998.4
16 14.09 В 3 н/о н/о +20.8 +12.1 57 +23 +23 комфорт 1028.6 997.8
17 14.09 В 2 н/о н/о +19.6 +12.2 62 +22 +22 комфорт 1028.6 997.6
18 14.09 В 1 н/о н/о +18.2 +12.3 68 +20 +20 1028.9 997.8 +16.8 +22.0
19 14.09 В 1 н/о н/о +17.6 +12.3 71 +19 +19 1029.6 998.4
20 14.09 В 1 н/о н/о +16.2 +11.8 75 +17 +17 1029.8 998.4
21 14.09 ЮВ 1 н/о н/о +14.3 +11.7 84 +15 +15 1030.0 998.4
22 14.09 ЮВ 1 н/о н/о +13.1 +11.4 89 +13 +13 1029.9 998.2
23 14.09 штиль 0 н/о н/о +12.6 +11.1 91 +12 +12 1029.8 998.0
00 15.09 В 1 н/о н/о +12.2 +10.8 91 +12 +12 1029.5 997.7
01 15.09 штиль 0 н/о н/о +12.1 +11.4 95 +11 +11 1028.6 996.8
02 15.09 СВ 1 н/о н/о +11.8 +10.9 94 +12 +12 1028.2 996.4
03 15.09 В 2 н/о н/о +11.6 +10.7 94 +10 +10 1028.2 996.4
04 15.09 СВ 2 н/о н/о +10.9 +10.1 95 +9 +9 1027.9 996.0
05 15.09 В 1 н/о н/о +10.8 +9.9 94 +10 +10 1027.8 995.9
06 15.09 СВ 2 н/о н/о +11.5 +9.9 90 +10 +10 1027.6 995.8 +10.2 +18.4
07 15.09 В 1 н/о н/о +14.0 +10.4 79 +14 +14 1027.4 995.9
08 15.09 СВ 1 н/о н/о +15.2 +10.8 75 +16 +16 1026.9 995.5
09 15.09 В 1 н/о н/о +17.2 +11.0 67 +18 +18 1026.0 994.9
10 15.09 штиль 0 н/о н/о +18.9 +11.7 63 +20 +20 1025.5 994.6
11 15.09 СЗ 2 н/о н/о +21.3 +12.8 58 +24 +24 комфорт 1024.3 993.7
12 15.09 З 1 н/о н/о +23.5 +13.6 54 +26 +26 жарко 1023.5 993.1
13 15.09 СЗ 3 н/о н/о +24.8 +13.8 50 +27 +27 жарко 1022.6 992.4
14 15.09 СЗ 2 н/о н/о +25.6 +14.4 50 +28 +28 жарко 1021.7 991.6
15 15.09 З 3 н/о н/о +25.6 +14.3 50 +28 +28 жарко 1021.0 990.9
16 15.09 З 2 н/о н/о +25.3 +14.6 52 +28 +28 жарко 1020.4 990.3
17 15.09 З 2 н/о н/о +22.9 +14.9 61 +27 +27 душно 1020.2 989.9
18 15.09 З 2 н/о н/о +19.1 +14.8 76 +21 +21 комфорт 1020.7 990.0 +11.4 +25.9
19 15.09 З 2 н/о н/о +17.8 +14.7 82 +18 +18 1021.2 990.3
20 15.09 З 1 н/о н/о +17.2 +15.0 87 +18 +18 1021.4 990.4
21 15.09 З 2 н/о н/о +15.9 +14.5 91 +16 +16 1021.5 990.4
22 15.09 СЗ 1 н/о н/о +15.7 +14.5 93 +16 +16 1021.6 990.5
23 15.09 З 1 н/о н/о +13.7 +12.7 94 +14 +14 1022.2 990.8

 

Местоположение метеостанции Амштеттен (Австрия): широта 48.10 долгота 14.90 высота над уровнем моря 271 м.

В архиве по умолчанию представлена погода в Амштеттене за последнюю неделю. Архивные данные за месяц целиком и за предыдущие месяцы, начиная с января 2011 года, Вы можете получить, выбрав интересующий диапазон дат из раскрывающегося списка и нажав кнопку "Ввод!".


*Определитесь, кто Вы:
робот инопланетянин человек

Внимание! Время в таблицах - всемирное. Для получения местного времени необходимо прибавить поправку, которая равна 1 ч.

Смотрите также архив погоды в соседних городах и на ближайших метеорологических станциях:

Погода в Вайдхофен-ан-дер-Ибсе (Австрия) (18 км)
Погода в Вайдхофен-ан-дер-Ибсе (Австрия) (18 км)
Погода в Лунце (Австрия) (31 км)
Погода в Бернкопфе (Австрия) (33 км)
Погода в Яуерлинге (Австрия) (41 км)
Погода в Санкт-Себастьяне (Австрия) (45 км)
Погода в Линце город (Австрия) (51 км)
Погода в Лилиенфельде (Австрия) (51 км)
Погода в Санкт-Пёльтене (Австрия) (55 км)
Погода в Линце (Австрия) (55 км)

Пояснения к столбцам:

Ветер - указаны скорость ветра в м/с - средняя за 10 мин, порывы в срок и между сроками (в фигурных скобках) и направление, откуда дует ветер: С - северный, СВ - северо-восточный, В - восточный, ЮВ - юго-восточный, Ю - южный, ЮЗ - юго-западный, З - западный, СЗ - северо-западный.
Видимость - горизонтальная дальность видимости в метрах или километрах. При видимости от 1 до 10 км при отсутствии осадков обычно наблюдается дымка, при ухудшении видимости до 1 км и менее - туман. В сухую погоду видимость может ухудшаться дымом, пылью или мглою.
Явления - указаны атмосферные явления, наблюдавшиеся в срок или в последний час перед сроком; фигурными скобками обозначены явления, наблюдавшиеся между сроками (за 1-3 часа до срока); квадратными скобками обозначены град или гололедные отложения с указанием их диаметра в мм.
Облачность - указаны через наклонную черту общая и нижняя облачность в баллах и высота нижней границы облаков в метрах; квадратными скобками обозначены формы облаков: Ci - перистые, Cs - перисто-слоистые, Cc - перисто-кучевые, Ac - высококучевые, As - высокослоистые, Sc - слоисто-кучевые, Ns - слоисто-дождевые, Cu - кучевые, Cb - кучево-дождевые. Подробнее классификацию облаков см. в Атласе облаков (PDF).
T - Температура воздуха - температура, измеренная на высоте 2 м над землей.
Td - Температура точки росы - температура, при понижении до которой содержащийся в воздухе водяной пар достигнет насыщения.
f - Относительная влажность воздуха - влажноcть воздуха, измеренная на высоте 2 м над землей.
Te - Эффективная температура - температура, которую ощущает одетый по сезону человек в тени. Характеристика душности погоды. При расчете учитывается влияние влажности воздуха и скорости ветра на теплоощущения человека.
Tes - Эффективная температура на солнце - температура, которую ощущает человек, с поправкой на солнечный нагрев. Характеристика знойности погоды. Зависит от высоты солнца над горизонтом, облачности и скорости ветра. Ночью, в пасмурную погоду, а также при ветре 12 м/с и более поправка равна нулю.
P - Атмосферное давление - приведенное к уровню моря атмосферное давление.
Po - Атмосферное давление - измеренное на уровне метеостанции атмосферное давление.
Tmin - Минимальная температура - минимум температуры воздуха на высоте 2 м над землей.
Tmax - Максимальная температура - максимум температуры воздуха на высоте 2 м над землей.
R - Количество осадков - Количество выпавших осадков за период времени, мм. При наведении курсора мыши на число - период времени, за который выпало указанное количество осадков.
R24 - Количество осадков - Количество выпавших осадков за 24 часа, мм.
S - Снежный покров - Высота снежного покрова, см. При наведении курсора мыши на число - состояние снежного покрова и степень покрытия местности в баллах.